Regional Weather Roundup
Issued by NWS

Home | Current Version | Previous Version | Graphics & Text | Print | Product List | Glossary On
Versions: 1 2 3 4 5 6 7 8 9 10 11 12 13 14 15 16 17 18 19 20 21 22 23 24 25 26 27 28 29 30 31 32 33 34 35 36 37 38 39 40 41 42 43 44 45 46 47 48 49 50
000
ASUS43 KOAX 290310
RWRNE

WEATHER ROUNDUP FOR NEBRASKA
NATIONAL WEATHER SERVICE OMAHA NE
1000 PM CDT TUE JUL 28 2015

NOTES: SATELLITE DATA IS BEING USED TO AUGMENT CLOUD COVER ABOVE
       12000 FEET.
       "FAIR" INDICATES FEW OR NO CLOUDS BELOW 12,000 FEET WITH NO
       SIGNIFICANT WEATHER AND/OR OBSTRUCTIONS TO VISIBILITY.

  * THESE STATIONS DO NOT REPORT WEATHER SUCH AS RAIN...SNOW OR FOG.

NEZ001>004-019>022-054>056-290400-
NEBRASKA PANHANDLE

CITY           SKY/WX    TMP DP  RH WIND       PRES   REMARKS
SCOTTSBLUFF    CLEAR     66  48  52 N6        30.18R
ALLIANCE       CLEAR     62  42  47 NE9       30.16R
CHADRON        CLEAR     62  43  49 NW3       30.14R
KIMBALL        CLEAR     62  37  38 E5        30.21R
SIDNEY         CLEAR     59  38  45 NE5       30.20R
$$

NEZ057>060-069>072-079>082-290400-
SOUTHWEST NEBRASKA

CITY           SKY/WX    TMP DP  RH WIND       PRES   REMARKS
NORTH PLATTE   CLEAR     64  50  60 NE7       30.10R
IMPERIAL       CLEAR     67  49  52 E3        30.13R
LEXINGTON      CLEAR     67  59  74 N7        30.07R
MCCOOK         CLEAR     67  52  58 N6        30.08R
OGALLALA       CLEAR     67  47  48 CALM      30.13R
$$

NEZ005>010-023>029-035>040-094-290400-
NORTH CENTRAL NEBRASKA

CITY           SKY/WX    TMP DP  RH WIND       PRES   REMARKS
VALENTINE      CLEAR     67  46  47 NW8       30.09R
AINSWORTH      CLEAR     70  45  40 N5        30.09R
BROKEN BOW     CLEAR     66  49  54 N5        30.07R
O`NEILL        CLEAR     68  59  74 N5        30.05R
ORD            CLEAR     64  58  80 NW5       30.04R
THEDFORD       CLEAR     67  49  52 CALM      30.12R
$$

NEZ041-046>049-061>064-073>077-083>087-290400-
SOUTH CENTRAL NEBRASKA

CITY           SKY/WX    TMP DP  RH WIND       PRES   REMARKS
GRAND ISLAND   CLEAR     66  59  78 N6        30.03R
AURORA         CLEAR     66  64  94 N3        30.01R
HASTINGS       CLEAR     69  63  81 N6        30.02R
HEBRON         PTCLDY    74  58  57 N5        29.99R
HOLDREGE       CLEAR     65  58  77 N7        30.05R
KEARNEY *      CLEAR     72  55  56 N5        30.04R
YORK           CLEAR     68  64  88 N8        30.00R
$$

NEZ011>018-030>034-042>045-290400-
NORTHEAST NEBRASKA

CITY           SKY/WX    TMP DP  RH WIND       PRES   REMARKS
NORFOLK        CLEAR     68  60  75 CALM      30.01R
ALBION         CLEAR     65  56  70 CALM      30.03R
BLAIR          CLOUDY    74  62  67 N12       29.98R
COLUMBUS *     CLEAR     66  57  72 N3        30.01R
FREMONT        CLOUDY    74  62  66 N3        30.00R
TEKAMAH        PTCLDY    71  67  87 N6        29.98R
WAYNE          CLEAR     65  60  84 CALM      30.02R
$$

NEZ050>053-065>068-078-088>093-290400-
SOUTHEAST NEBRASKA

CITY           SKY/WX    TMP DP  RH WIND       PRES   REMARKS
LINCOLN        CLOUDY    73  62  68 N9        29.98R
OMAHA EPPLEY   CLOUDY    74  66  76 N9        29.96R
BEATRICE       CLOUDY    75  62  62 N10G16    29.97R
FALLS CITY     CLOUDY    79  74  84 N12       29.91R
NEBRASKA CITY  CLOUDY    73  69  87 NE8       29.96R
PLATTSMOUTH    MOCLDY    76  62  62 N6        29.98R
$$

NEZ044-045-051>053-067-290400-
OMAHA AREA

CITY           SKY/WX    TMP DP  RH WIND       PRES   REMARKS
OMAHA EPPLEY   CLOUDY    74  66  76 N9        29.96R
BLAIR          CLOUDY    74  62  67 N12       29.98R
FREMONT        CLOUDY    74  62  66 N3        30.00R
MILLARD        CLOUDY    77  64  63 NW6       29.96R
OFFUTT AFB     MOCLDY    76  63  64 N10G20    29.96R
PLATTSMOUTH    MOCLDY    76  62  62 N6        29.98R
WAHOO          CLOUDY    72  65  79 N7        29.99R
$$



USA.gov is the U.S. government's official web portal to all federal, state and local government web resources and services.